• Processing (Info)

  • MPEC 2020-F51 : 2020 FQ1

    The following Minor Planet Electronic Circular may be linked-to from your own Web pages, but must not otherwise be redistributed electronically.

    A form allowing access to any MPEC is at the bottom of this page.


    Read MPEC 2020-F50 Read MPEC 2020-F52


    M.P.E.C. 2020-F51                                Issued 2020 March 18, 22:52 UT
    
         The Minor Planet Electronic Circulars contain information on unusual
             minor planets and routine data on comets.  They are published
        on behalf of Division F of the International Astronomical Union by the
              Minor Planet Center, Smithsonian Astrophysical Observatory,
                              Cambridge, MA 02138, U.S.A.
    
                 Prepared using the Tamkin Foundation Computer Network
    
                                  MPC@CFA.HARVARD.EDU
                URL https://www.minorplanetcenter.net/    ISSN 1523-6714
    
                                    2020 FQ1                                 
    
    
    Observations:
         K20F01Q  C2020 01 22.64015111 04 30.113+36 48 26.96         23.2 GVEF051F51
         K20F01Q  C2020 01 22.64657211 04 30.256+36 48 33.25         22.8 GVEF051F51
         K20F01Q  C2020 01 22.65298811 04 30.389+36 48 39.66         22.7 GVEF051F51
         K20F01Q  C2020 01 22.65944411 04 30.508+36 48 46.47         22.0 GVEF051F51
         K20F01Q* C2020 03 17.20734 08 47 29.36 +57 45 59.2          19.9 GVEF051G96
         K20F01Q  C2020 03 17.21260 08 47 26.27 +57 46 01.6          20.4 GVEF051G96
         K20F01Q  C2020 03 17.22310 08 47 20.04 +57 46 06.1          20.4 GVEF051G96
         K20F01Q  C2020 03 17.24892 08 47 04.78 +57 46 17.0          20.3 GVEF051I52
         K20F01Q  C2020 03 17.24969 08 47 04.44 +57 46 17.8          20.2 GVEF051I52
         K20F01Q  C2020 03 17.25045 08 47 03.92 +57 46 17.8          20.1 GVEF051I52
         K20F01Q  C2020 03 17.25122 08 47 03.45 +57 46 17.8          20.4 GVEF051I52
         K20F01Q  C2020 03 17.29445 08 46 38.03 +57 46 33.9          20.7 GVEF051I52
         K20F01Q  C2020 03 17.29557 08 46 37.39 +57 46 34.2          19.5 GVEF051I52
         K20F01Q  C2020 03 17.29779 08 46 35.99 +57 46 34.4          20.3 GVEF051I52
         K20F01Q KC2020 03 17.76929308 42 12.93 +57 49 54.0          20.0 GVEF051L01
         K20F01Q KC2020 03 17.77126008 42 11.76 +57 49 55.2          19.9 GVEF051L01
         K20F01Q KC2020 03 17.77361508 42 10.36 +57 49 55.9          20.1 GVEF051L01
         K20F01Q  C2020 03 17.77879 08 42 07.17 +57 49 53.3          19.6 VVEF051033
         K20F01Q  C2020 03 17.78046 08 42 06.16 +57 49 54.0          19.6 VVEF051033
         K20F01Q  C2020 03 17.78213 08 42 05.14 +57 49 54.6          19.6 VVEF051033
         K20F01Q KC2020 03 17.90267 08 40 52.50 +57 50 41.4          18.8 RVEF051K61
         K20F01Q KC2020 03 17.90349 08 40 52.14 +57 50 40.8          18.9 RVEF051K61
         K20F01Q KC2020 03 17.90404 08 40 51.82 +57 50 40.9          19.1 RVEF051K61
         K20F01Q KC2020 03 17.95723 08 40 19.62 +57 50 59.7          20.1 GVEF051204
         K20F01Q KC2020 03 17.96850 08 40 12.84 +57 51 02.3                VEF051204
         K20F01Q KC2020 03 17.97863 08 40 06.74 +57 51 04.8                VEF051204
         K20F01Q KC2020 03 17.99403 08 39 57.87 +57 51 12.5          19.4 VqEF051I93
         K20F01Q KC2020 03 17.99711 08 39 56.00 +57 51 12.8          19.2 VqEF051I93
         K20F01Q KC2020 03 18.00019 08 39 54.18 +57 51 13.7          19.4 VqEF051I93
         K20F01Q  C2020 03 18.11444 08 38 52.55 +57 52 07.5                VEF051I52
         K20F01Q  C2020 03 18.11597 08 38 51.51 +57 52 07.7                VEF051I52
         K20F01Q  C2020 03 18.11751 08 38 50.45 +57 52 08.8                VEF051I52
         K20F01Q  C2020 03 18.11903 08 38 49.47 +57 52 09.8                VEF051I52
         K20F01Q  C2020 03 18.15531 08 38 22.86 +57 51 31.4          20.0 VVEF051033
         K20F01Q  C2020 03 18.15628 08 38 22.31 +57 51 31.7          20.2 VVEF051033
         K20F01Q  C2020 03 18.15726 08 38 21.72 +57 51 31.6          19.9 VVEF051033
         K20F01Q  C2020 03 18.78089 08 32 13.47 +57 54 47.8          19.7 VVEF051033
         K20F01Q  C2020 03 18.78187 08 32 12.81 +57 54 48.1          19.6 VVEF051033
         K20F01Q  C2020 03 18.78285 08 32 12.21 +57 54 48.4          19.8 VVEF051033
         K20F01Q  C2020 03 18.78337 08 32 11.76 +57 54 50.8                VEF051246
         K20F01Q  C2020 03 18.78368 08 32 11.57 +57 54 51.3          20.4 GVEF051246
         K20F01Q  C2020 03 18.78392 08 32 11.38 +57 54 51.9                VEF051246
         K20F01Q  C2020 03 18.78417 08 32 11.32 +57 54 51.7                VEF051246
         K20F01Q  C2020 03 18.78441 08 32 11.14 +57 54 51.4                VEF051246
         K20F01Q  C2020 03 18.78465 08 32 10.98 +57 54 51.4                VEF051246
         K20F01Q  C2020 03 18.78538 08 32 10.54 +57 54 51.4                VEF051246
         K20F01Q KC2020 03 18.78773 08 32 09.05 +57 54 50.1          19.3 RVEF051K61
         K20F01Q KC2020 03 18.78834 08 32 08.70 +57 54 50.0          19.4 RVEF051K61
         K20F01Q KC2020 03 18.78895 08 32 08.31 +57 54 50.6          19.3 RVEF051K61
         K20F01Q KC2020 03 18.82714 08 31 43.98 +57 55 00.2          20.6 GVEF051A44
         K20F01Q KC2020 03 18.83242 08 31 40.65 +57 55 01.6          21.8 GVEF051A44
         K20F01Q KC2020 03 18.83777 08 31 37.26 +57 55 02.3          20.5 GVEF051A44
    
    Observer details:
    033 Karl Schwarzschild Observatory, Tautenburg.  Observers U. Laux, S. Melnikov,
        B. Stecklum.  Measurer B. Stecklum.  1.34-m f/3 Schmidt + CCD.
    204 Schiaparelli Observatory.  Observer L. Buzzi.  0.84-m f/3.5 reflector + CCD.
    246 Klet Observatory-KLENOT.  Observers M. Tichy, J. Ticha, M. Honkova.  
        Measurer M. Tichy.  1.06-m f/2.7 reflector + 2048x2048 CCD.
    A44 Altschwendt.  Observer W. Ries.  0.45-m f/4.5 reflector + CCD.
    F51 Pan-STARRS 1, Haleakala.  Observers J. Bulger, K. Chambers, T. Lowe, A. 
       Schultz, M. Willman.  Measurers S. Chastel, M. Huber, Y. Ramanjooloo, R. 
       Wainscoat, R. Weryk.  1.8-m Ritchey-Chretien + CCD.
    G96 Mt. Lemmon Survey.  Observer D. Rankin.  Measurers E. J. Christensen, G. A. 
       Farneth, D. C. Fuls, A. R. Gibbs, A. D. Grauer, H. Groeller, R. A. Kowalski, 
       S. M. Larson, G. J. Leonard, T. A. Pruyne, D. Rankin, R. L. Seaman, F. C. 
       Shelly, K. W. Wierzchos.  1.5-m reflector + 10K CCD.
    I52 Steward Observatory, Mt. Lemmon Station.  Observer H. Groeller.  Measurers 
       E. J. Christensen, G. A. Farneth, D. C. Fuls, A. R. Gibbs, A. D. Grauer, H. 
       Groeller, R. A. Kowalski, S. M. Larson, G. J. Leonard, T. A. Pruyne, D. 
       Rankin, R. L. Seaman, F. C. Shelly, K. W. Wierzchos.  1.0-m reflector + CCD.
    I93 St Pardon de Conques.  Observer F. Losse.  0.40-m f/3.7 reflector + CCD.
    K61 Rokycany Observatory.  Observer M. Adamovsky.  0.51-m f/6.8 reflector + CCD.
    L01 Visnjan Observatory, Tican.  Observer K. Korlevic.  1.0-m f/2.9 reflector + 
       CCD.
    
    Orbital elements:
    2020 FQ1                                                 Earth MOID = 0.0534 AU
    Epoch 2020 May 31.0 TT = JDT 2459000.5                  Veres
    M   9.42129              (2000.0)            P               Q
    n   0.40575543     Peri.  217.91281     -0.54314023     +0.83670549
    a   1.8070070      Node    19.50161     -0.70982101     -0.41292221
    e   0.5311932      Incl.   12.13225     -0.44850063     -0.35974877
    P   2.43           H   21.6           G   0.15           U   6
    Residuals in seconds of arc
    200122 F51  0.2+  0.0     200317 033  0.2-  0.2-    200318 033  0.0   0.2-
    200122 F51  0.1+  0.1-    200317 033  0.4-  0.3-    200318 033  0.3-  0.1-
    200122 F51  0.0   0.1-    200317 K61  0.6+  0.5+    200318 033  0.1-  0.1-
    200122 F51  0.3-  0.3+    200317 K61  1.6+  0.3-    200318 246  0.1-  0.1+
    200317 G96  0.0   0.1+    200317 K61  1.7+  0.4-    200318 246  0.1-  0.5+
    200317 G96  0.1+  0.1+    200317 204  0.1-  0.0     200318 246  0.4-  1.0+
    200317 G96  0.1-  0.1-    200317 204  0.0   0.0     200318 246  0.4+  0.8+
    200317 I52  0.3-  0.0     200317 204  0.1-  0.2+    200318 246  0.2+  0.4+
    200317 I52  0.6+  0.5+    200317 I93  0.1-  0.4+    200318 246  0.1+  0.4+
    200317 I52  0.1+  0.2+    200317 I93  0.2-  0.0     200318 246  0.3+  0.2+
    200317 I52  0.1-  0.1-    200318 I93  0.1+  0.3+    200318 K61  0.1+  0.8-
    200317 I52  0.0   0.1+    200318 I52  0.2+  0.3-    200318 K61  0.4+  1.1-
    200317 I52  0.2+  0.1+    200318 I52  0.5-  0.7-    200318 K61  0.3+  0.6-
    200317 I52  0.6-  0.5-    200318 I52  1.4-  0.2-    200318 A44  0.3-  0.2-
    200317 L01  0.0   0.1+    200318 I52  1.7-  0.1+    200318 A44  0.0   0.2+
    200317 L01  0.1+  0.3+    200318 033  0.1-  0.2-    200318 A44  0.1+  0.0
    200317 L01  0.2+  0.0     200318 033  0.0   0.0
    200317 033  0.1-  0.1-    200318 033  0.2-  0.3-
    
    Ephemeris:
    2020 FQ1                 a,e,i = 1.81, 0.53, 12                  q = 0.8471
    Date    TT    R. A. (2000) Decl.     Delta      r    Elong.  Phase     V
    2020 02 17    10 56 32.5 +46 13 52   0.3751  1.3100   144.0    26.3    21.3
    ...
    2020 03 03    10 17 44.7 +53 03 50   0.2674  1.1902   133.1    37.4    20.6
    ...
    2020 03 11    09 36 12.2 +56 13 08   0.2183  1.1277   123.2    47.5    20.3
    ...
    2020 03 17    08 49 25.6 +57 43 54   0.1845  1.0822   113.6    57.4    20.2
    2020 03 18    08 39 57.9 +57 51 11   0.1791  1.0748   111.8    59.3    20.1
    2020 03 19    08 29 58.6 +57 55 21   0.1738  1.0674   109.9    61.3    20.1
    ...
    2020 03 25    07 18 43.4 +56 46 13   0.1436  1.0245    96.9    75.1    20.1
    ...
    2020 04 02    05 22 20.1 +47 34 46   0.1113  0.9717    72.4   101.3    20.5
    ...
    2020 04 17    02 33 36.4 +03 52 07   0.1157  0.8924    14.6   163.5    29.0
    
    A. U. Tomatic                (C) Copyright 2020 MPC           M.P.E.C. 2020-F51
    


    Read MPEC 2020-F50 Read MPEC 2020-F52


    MPEC number:

    Enter an MPEC number in one of the following forms:

    • 1997-B01 (the full form)
    • J97B01 (the packed version of the full form)
    • B01 (the abbreviated form)